Waarnemingen

Advertentie
Mijn weer
Trier-Petrisberg, Duitsland (10609): temperatuur & dauwpunt: 12.12.2017 13:00:00 - 18.12.2017 13:00:00 (CET)Trier-Petrisberg, Duitsland (10609): temperatuur 5cm & temperatuur -5cm: 12.12.2017 13:00:00 - 18.12.2017 13:00:00 (CET)Trier-Petrisberg, Duitsland (10609): temperatuur -20cm & temperatuur -100cm: 12.12.2017 13:00:00 - 18.12.2017 13:00:00 (CET)Trier-Petrisberg, Duitsland (10609): windsnelheid & windstoten: 12.12.2017 13:00:00 - 18.12.2017 13:00:00 (CET)Trier-Petrisberg, Duitsland (10609): windrichting: 12.12.2017 13:00:00 - 18.12.2017 13:00:00 (CET)Trier-Petrisberg, Duitsland (10609): luchtdruk: 12.12.2017 13:00:00 - 18.12.2017 13:00:00 (CET)Trier-Petrisberg, Duitsland (10609): zicht: 12.12.2017 13:00:00 - 18.12.2017 13:00:00 (CET)Trier-Petrisberg, Duitsland (10609): Zonneschijnduur: 12.12.2017 13:00:00 - 18.12.2017 13:00:00 (CET)Trier-Petrisberg, Duitsland (10609): neerslag: 12.12.2017 13:00:00 - 18.12.2017 13:00:00 (CET)
Datum & Tijd tt [°C] td [°C] tt 5cm [°C] tt -5cm [°C] tt -20cm [°C] tt -100cm [°C] ff [km/u] ff [kn] fx [km/u] fx [kn] dd ppp [hPa] vv [km] sd [min] rr [mm]
18.12.2017 13:00:00 2,0 1,2 1,5 0,9 2,8 6,0 0 0 6 3 N 1023,3 14 0 0,0
18.12.2017 12:00:00 1,6 1,0 1,3 0,9 2,8 6,0 4 2 8 5 ZZW 1022,5 0,9 0 0,1
18.12.2017 11:00:00 1,2 0,5 0,9 0,9 2,9 6,0 4 2 7 4 ZW 1022,0 0,8 0 0,1
18.12.2017 10:00:00 0,9 0,4 0,0 1,0 2,9 6,0 5 3 9 5 ZW 1021,1 7 0 0,0
18.12.2017 09:00:00 0,3 0,1 0,1 1,0 2,9 6,0 7 4 15 8 ZW 1020,2 3,4 0 0,1
18.12.2017 08:00:00 0,3 -0,1 0,1 1,0 3,0 6,0 9 5 16 8 ZZW 1019,6 23 0 0,0
18.12.2017 07:00:00 0,1 -0,3 0,0 1,0 3,0 6,0 14 8 22 12 ZW 1019,2 17 0 0,1
18.12.2017 06:00:00 0,0 -0,3 -0,1 1,1 3,1 6,0 15 8 25 14 ZW 1019,9 0,9 0 0,3
18.12.2017 05:00:00 0,1 -0,3 0,0 1,1 3,2 6,0 16 9 36 19 ZZW 1020,3 6 0 0,9
18.12.2017 04:00:00 0,1 -0,2 0,0 1,1 3,2 6,0 24 13 37 20 ZZW 1021,1 1,1 0 1,0
18.12.2017 03:00:00 -0,1 -0,3 -0,1 1,2 3,3 6,0 26 14 35 19 ZZW 1022,3 2,0 0 1,5
18.12.2017 02:00:00 0,0 -0,7 0,0 1,4 3,4 6,0 27 14 44 24 ZZW 1023,3 1,3 0 0,2
18.12.2017 01:00:00 0,7 -1,9 0,6 1,7 3,4 6,1 19 11 37 20 ZZW 1024,6 46 0 0,0
18.12.2017 00:00:00 0,8 -1,5 0,6 1,8 3,4 6,1 23 12 37 20 ZW 1025,6 35 0 0,0
17.12.2017 23:00:00 0,9 -1,2 0,8 2,0 3,5 6,1 21 11 32 17 ZW 1026,6 29 0 0,0
17.12.2017 22:00:00 0,9 -1,0 0,9 2,1 3,5 6,1 19 10 29 16 ZW 1026,9 30 0 0,0
17.12.2017 21:00:00 1,0 -0,8 1,0 2,1 3,5 6,1 18 10 29 15 ZW 1027,3 30 0 0,0
17.12.2017 20:00:00 1,2 -0,5 1,1 2,2 3,5 6,1 17 9 26 14 ZW 1027,4 23 0 0,0
17.12.2017 19:00:00 1,2 -0,3 1,2 2,3 3,5 6,1 13 7 21 12 ZW 1027,4 22 0 0,0
17.12.2017 18:00:00 1,2 -0,4 1,1 2,4 3,5 6,1 13 7 23 13 ZW 1027,4 24 0 0,0
17.12.2017 17:00:00 1,3 0,0 1,2 2,5 3,5 6,1 12 6 20 11 ZW 1027,4 23 0 0,0
17.12.2017 16:00:00 1,3 0,0 1,3 2,7 3,5 6,1 10 6 21 12 ZW 1026,7 21 0 0,0
17.12.2017 15:00:00 1,1 -0,1 1,2 2,8 3,5 6,1 14 7 21 11 WZW 1026,1 18 0 0,0
17.12.2017 14:00:00 1,4 -0,4 1,7 2,7 3,4 6,1 11 6 20 11 ZW 1025,9 19 0 0,0
17.12.2017 13:00:00 1,4 -0,7 1,7 2,7 3,4 6,1 14 8 22 12 ZW 1025,9 26 0 0,0
17.12.2017 12:00:00 1,4 -0,8 1,7 2,5 3,4 6,1 13 7 19 11 WZW 1025,8 27 0 0,0
17.12.2017 11:00:00 1,2 -0,9 1,5 1,9 3,4 6,1 10 6 21 11 ZW 1025,6 29 0 0,0
17.12.2017 10:00:00 0,7 -1,6 0,7 1,6 3,4 6,1 13 7 18 10 WZW 1025,2 31 0 0,0
17.12.2017 09:00:00 0,5 -1,5 0,3 1,5 3,5 6,1 12 7 19 10 WZW 1024,4 30 0 0,0
17.12.2017 08:00:00 0,3 -1,4 0,1 1,4 3,6 6,1 10 5 18 10 ZW 1023,6 29 0 0,0
17.12.2017 07:00:00 0,4 -1,8 -0,7 1,6 3,6 6,1 11 6 22 12 W 1023,1 35 0 0,0
17.12.2017 06:00:00 0,9 -1,8 0,6 1,8 3,7 6,1 14 8 20 11 WZW 1022,7 58 0 0,0
17.12.2017 05:00:00 1,2 -1,6 0,8 1,9 3,8 6,1 11 6 25 14 WZW 1022,2 70 0 0,0
17.12.2017 04:00:00 1,7 -1,8 1,2 2,1 3,8 6,1 12 7 21 12 WZW 1021,8 70 0 0,0
17.12.2017 03:00:00 1,9 -2,5 1,5 2,3 3,9 6,1 13 7 29 16 W 1021,6 70 0 0,0
17.12.2017 02:00:00 2,1 -1,2 1,5 2,5 3,9 6,1 12 7 27 15 W 1021,1 60 0 0,0
17.12.2017 01:00:00 2,2 -0,5 1,5 2,6 3,9 6,1 13 7 22 12 W 1020,7 42 0 0,0
17.12.2017 00:00:00 2,0 0,0 1,5 2,7 4,0 6,1 13 7 24 13 WZW 1020,5 41 0 0,1
16.12.2017 23:00:00 2,4 -0,1 1,8 2,8 4,0 6,1 12 7 20 11 WZW 1019,9 40 0 0,0
16.12.2017 22:00:00 2,6 0,2 1,9 2,9 4,0 6,1 8 4 22 12 WZW 1019,3 70 0 0,0
16.12.2017 21:00:00 2,6 0,5 2,0 3,0 4,1 6,1 11 6 20 11 WZW 1018,8 70 0 0,0
16.12.2017 20:00:00 2,6 0,8 2,0 3,0 4,1 6,1 10 5 20 11 WZW 1018,2 62 0 0,0
16.12.2017 19:00:00 2,4 1,0 1,9 3,2 4,1 6,1 5 3 18 10 W 1017,6 53 0 0,2
16.12.2017 18:00:00 2,7 0,9 2,3 3,3 4,1 6,1 10 5 20 11 WZW 1016,7 30 0 0,0
16.12.2017 17:00:00 2,6 1,0 2,1 3,6 4,1 6,1 13 7 21 11 W 1016,1 30 0 0,0
16.12.2017 16:00:00 2,9 0,8 2,4 4,0 4,0 6,1 11 6 19 10 W 1015,3 41 0 0,0
16.12.2017 15:00:00 3,1 0,8 2,9 4,2 4,0 6,1 12 6 24 13 W 1014,5 46 0 0,0
16.12.2017 14:00:00 3,9 0,9 4,0 4,3 3,8 6,1 8 5 21 11 W 1014,1 39 0 0,0
16.12.2017 13:00:00 3,7 0,6 3,9 4,1 3,8 6,1 9 5 18 10 W 1013,6 31 0 0,0
16.12.2017 12:00:00 3,7 0,8 3,7 3,5 3,7 6,1 7 4 19 10 WNW 1013,1 25 20 0,0
16.12.2017 11:00:00 2,4 0,2 2,7 2,7 3,7 6,1 5 3 16 9 WZW 1012,5 16 6 0,0
16.12.2017 10:00:00 2,0 0,6 1,8 2,4 3,7 6,1 8 4 13 7 WZW 1011,4 17 0 0,0
16.12.2017 09:00:00 1,8 0,5 1,4 2,4 3,8 6,0 6 4 11 6 W 1010,5 18 0 0,0
16.12.2017 08:00:00 1,8 0,9 1,5 2,5 3,8 6,0 6 3 13 7 WNW 1009,3 19 0 0,0
16.12.2017 07:00:00 1,9 0,8 1,4 2,5 3,8 6,0 4 2 10 6 WNW 1008,3 28 0 0,0
16.12.2017 06:00:00 1,9 0,7 1,5 2,7 3,8 6,0 8 4 12 7 N 1007,4 33 0 0,0
16.12.2017 05:00:00 1,9 1,2 1,7 2,7 3,9 6,0 6 3 19 10 N 1006,7 18 0 0,0
16.12.2017 04:00:00 1,9 1,1 1,8 2,8 3,9 6,0 8 4 15 8 NNO 1005,5 17 0 0,0
16.12.2017 03:00:00 1,9 1,4 1,8 2,8 3,9 6,0 7 4 13 7 NNO 1004,7 11 0 0,0
16.12.2017 02:00:00 1,9 1,4 1,8 2,8 3,9 6,0 4 2 14 8 NNO 1003,6 7 0 0,0
16.12.2017 01:00:00 2,1 1,7 2,1 3,0 4,0 6,0 10 6 17 9 NNO 1002,9 8 0 0,0
16.12.2017 00:00:00 2,3 1,8 2,2 3,1 4,0 6,0 8 4 19 10 NNO 1002,4 12 0 0,0
15.12.2017 23:00:00 2,3 1,8 2,3 3,1 4,0 6,0 10 5 15 8 NNO 1001,4 6 0 0,0
15.12.2017 22:00:00 2,4 1,9 2,4 3,1 4,0 6,0 6 4 11 6 NNO 1000,7 8 0 0,0
15.12.2017 21:00:00 2,5 1,7 2,4 3,2 4,0 6,0 3 2 6 4 ONO 1000,4 68 0 0,0
15.12.2017 20:00:00 2,1 1,6 2,2 3,2 4,0 6,0 5 3 9 5 OZO 999,6 34 0 0,8
15.12.2017 19:00:00 2,4 1,6 2,3 3,3 4,0 6,0 6 3 20 11 ZO 999,0 13 0 1,0
15.12.2017 18:00:00 2,8 1,6 2,4 3,5 4,0 6,0 15 8 23 13 Z 998,5 20 0 1,2
15.12.2017 17:00:00 3,4 1,8 2,9 3,7 4,0 6,0 12 6 18 10 Z 998,3 39 0 0,0
15.12.2017 16:00:00 3,6 2,0 3,2 4,0 3,9 6,0 14 8 30 16 ZZW 998,3 63 0 0,1
15.12.2017 15:00:00 3,4 1,7 3,2 4,3 3,8 6,0 13 7 28 15 ZZW 998,0 70 0 0,0
15.12.2017 14:00:00 3,7 0,6 3,2 4,2 3,7 6,0 16 9 37 20 WZW 997,8 70 11 0,0
15.12.2017 13:00:00 3,3 1,3 3,2 3,5 3,6 6,0 16 9 34 19 WZW 997,6 70 1 0,0
15.12.2017 12:00:00 2,9 1,5 2,7 3,2 3,6 6,0 16 9 34 18 W 997,0 70 0 0,7
15.12.2017 11:00:00 2,8 2,1 2,7 3,0 3,6 6,0 23 12 35 19 ZW 996,2 23 0 0,6
15.12.2017 10:00:00 2,5 1,6 2,4 2,6 3,6 6,0 15 8 26 14 ZZW 995,5 47 0 0,1
15.12.2017 09:00:00 2,0 0,8 1,7 2,5 3,6 6,0 12 7 26 14 ZZW 995,5 35 0 0,5
15.12.2017 08:00:00 2,3 0,9 1,8 2,5 3,6 6,0 21 11 32 18 ZZW 995,6 25 0 0,1
15.12.2017 07:00:00 2,7 0,6 2,0 2,5 3,7 6,0 18 10 38 20 ZZW 995,5 70 0 0,0
15.12.2017 06:00:00 2,7 1,1 2,1 2,4 3,7 6,0 23 12 34 18 ZZW 995,7 70 0 0,0
15.12.2017 05:00:00 2,2 1,0 1,6 2,5 3,7 6,0 13 7 27 15 ZW 995,5 70 0 0,1
15.12.2017 04:00:00 2,7 0,7 2,0 2,7 3,7 6,0 18 10 33 18 ZW 995,3 70 0 0,2
15.12.2017 03:00:00 2,6 1,1 2,2 2,8 3,7 6,0 18 10 42 23 WZW 994,6 9 0 0,1
15.12.2017 02:00:00 3,1 1,6 2,5 2,9 3,7 6,0 17 9 32 17 ZW 992,9 52 0 0,0
15.12.2017 01:00:00 3,0 2,4 2,5 3,0 3,7 6,0 13 7 22 12 ZW 992,7 50 0 0,1
15.12.2017 00:00:00 3,1 2,3 2,8 3,0 3,7 6,0 15 8 26 14 WZW 992,5 70 0 0,9
14.12.2017 23:00:00 3,1 2,0 2,7 3,0 3,7 6,0 13 7 46 25 ZW 992,4 65 0 0,3
14.12.2017 22:00:00 3,6 1,6 2,9 3,0 3,7 6,0 24 13 38 21 ZZW 993,1 70 0 0,1
14.12.2017 21:00:00 3,8 2,0 3,1 2,9 3,7 6,0 28 15 44 24 ZZW 993,4 19 0 0,0
14.12.2017 20:00:00 3,8 1,6 3,2 2,8 3,7 6,0 27 15 42 23 ZZW 994,0 70 0 0,0
14.12.2017 19:00:00 3,7 1,4 3,0 2,7 3,8 6,0 24 13 38 21 ZZW 994,9 70 0 0,0
14.12.2017 18:00:00 3,7 1,4 2,9 2,8 3,8 6,0 26 14 44 24 ZZW 995,8 70 0 0,0
14.12.2017 17:00:00 3,9 1,0 2,3 3,2 3,7 6,0 33 18 49 26 ZW 996,5 70 0 0,0
14.12.2017 16:00:00 4,0 2,1 3,2 3,6 3,7 6,0 25 13 47 26 ZW 997,1 70 0 0,0
14.12.2017 15:00:00 3,9 2,4 3,4 3,7 3,6 6,0 24 13 57 31 ZW 997,5 29 0 0,0
14.12.2017 14:00:00 3,8 2,3 3,4 3,7 3,5 6,0 30 16 49 27 ZW 998,1 40 0 0,2
14.12.2017 13:00:00 3,3 2,2 3,2 3,4 3,5 6,0 27 14 67 36 ZW 998,9 20 0 0,5
14.12.2017 12:00:00 4,1 1,2 3,5 3,2 3,4 6,0 38 20 61 33 ZW 999,5 28 0 0,0
14.12.2017 11:00:00 4,3 0,7 4,0 2,8 3,4 6,0 35 19 59 32 ZW 1000,3 70 0 0,0
14.12.2017 10:00:00 3,9 0,4 3,4 2,4 3,4 6,0 32 17 51 28 ZW 1000,1 67 0 0,0
14.12.2017 09:00:00 3,6 0,9 2,7 2,2 3,4 6,0 24 13 58 31 WZW 1000,1 70 0 0,1
14.12.2017 08:00:00 3,9 -0,2 3,2 2,0 3,5 6,0 30 16 60 32 WZW 999,5 66 0 0,0
14.12.2017 07:00:00 3,8 -1,1 2,9 1,8 3,5 6,0 34 18 66 36 WZW 998,5 70 0 0,0
14.12.2017 06:00:00 3,9 -1,7 2,4 2,2 3,5 6,0 37 20 61 33 W 997,4 70 0 0,0
14.12.2017 05:00:00 3,9 -0,6 2,6 2,5 3,5 6,0 29 16 56 30 W 996,2 70 0 0,0
14.12.2017 04:00:00 3,8 1,3 2,5 3,0 3,5 6,0 31 17 64 35 W 994,8 70 0 3,6
14.12.2017 03:00:00 4,7 2,7 3,7 2,9 3,5 6,0 30 16 49 27 ZZW 993,3 12 0 0,0
14.12.2017 02:00:00 4,9 2,1 3,7 2,8 3,5 6,0 21 11 45 24 ZW 994,9 70 0 0,0
14.12.2017 01:00:00 4,9 3,5 3,3 3,2 3,4 6,0 21 11 36 19 WZW 994,5 70 0 0,0
14.12.2017 00:00:00 4,8 3,6 4,2 3,3 3,4 6,1 27 15 61 33 ZW 994,1 70 0 0,9
13.12.2017 23:00:00 4,6 3,3 4,1 3,2 3,3 6,1 40 22 63 34 ZZW 993,2 47 0 1,5
13.12.2017 22:00:00 4,6 3,3 4,0 3,1 3,2 6,1 44 24 74 40 ZZW 994,3 9 0 1,5
13.12.2017 21:00:00 4,6 3,4 4,0 2,9 3,1 6,1 47 25 70 38 ZZW 995,7 13 0 1,2
13.12.2017 20:00:00 4,5 3,2 3,9 2,6 3,1 6,1 39 21 61 33 ZZW 997,9 19 0 0,1
13.12.2017 19:00:00 3,9 2,7 3,5 2,3 3,0 6,1 35 19 53 29 ZZW 999,7 70 0 0,5
13.12.2017 18:00:00 3,4 2,5 3,0 2,0 3,0 6,1 30 16 48 26 ZZW 1001,7 40 0 0,2
13.12.2017 17:00:00 2,3 1,5 2,0 1,7 3,0 6,1 20 11 36 20 ZW 1002,8 30 0 0,3
13.12.2017 16:00:00 1,2 0,5 1,0 1,6 3,1 6,2 27 15 41 22 ZW 1003,9 20 0 0,6
13.12.2017 15:00:00 0,8 0,0 0,2 1,8 3,1 6,2 25 14 45 25 ZW 1004,7 13 0 0,9
13.12.2017 14:00:00 1,5 0,3 1,0 2,0 3,1 6,2 30 16 51 28 ZZW 1005,5 15 0 1,2
13.12.2017 13:00:00 1,6 0,3 1,2 2,2 3,1 6,2 39 21 63 34 Z 1007,0 9 0 1,9
13.12.2017 12:00:00 2,0 0,6 1,7 2,2 3,1 6,2 32 18 58 32 ZZW 1008,6 10 0 1,2
13.12.2017 11:00:00 2,9 0,0 2,3 2,2 3,0 6,2 35 19 58 32 ZZW 1010,2 18 0 0,0
13.12.2017 10:00:00 3,0 -0,3 2,9 1,8 3,0 6,2 36 20 54 29 ZZW 1011,0 70 10 0,0
13.12.2017 09:00:00 2,4 -0,5 2,0 1,3 3,0 6,2 35 19 63 34 ZZW 1012,1 70 0 0,0
13.12.2017 08:00:00 2,1 -0,8 1,4 1,1 3,1 6,2 31 17 53 28 ZZW 1013,1 70 0 0,0
13.12.2017 07:00:00 1,5 -1,1 1,0 1,0 3,1 6,2 21 12 35 19 ZZW 1014,3 70 0 0,0
13.12.2017 06:00:00 1,3 -1,1 0,0 1,2 3,2 6,2 20 11 33 18 ZZW 1014,9 70 0 0,0
13.12.2017 05:00:00 1,9 -0,5 1,5 1,6 3,2 6,2 18 10 29 16 ZW 1015,5 70 0 0,0
13.12.2017 04:00:00 1,9 -0,3 1,3 1,6 3,2 6,2 16 9 37 20 ZZW 1016,2 60 0 0,0
13.12.2017 03:00:00 1,8 -0,2 1,5 1,5 3,2 6,2 22 12 36 20 ZZW 1016,9 59 0 0,0
13.12.2017 02:00:00 1,7 -0,2 1,3 1,3 3,3 6,2 22 12 30 16 ZZW 1016,8 55 0 0,0
13.12.2017 01:00:00 1,8 -0,3 1,5 1,3 3,3 6,2 22 12 33 18 ZW 1017,4 57 0 0,0
13.12.2017 00:00:00 1,5 -0,2 0,7 1,2 3,4 6,2 15 8 25 13 ZZW 1017,5 46 0 0,0
12.12.2017 23:00:00 1,4 -0,4 0,9 1,2 3,5 6,2 14 8 26 14 ZW 1017,2 36 0 0,0
12.12.2017 22:00:00 0,8 -0,7 0,4 1,2 3,6 6,2 15 8 23 12 ZZW 1017,4 32 0 0,0
12.12.2017 21:00:00 0,4 -1,3 -0,5 1,3 3,7 6,2 16 9 21 11 ZZW 1017,2 37 0 0,0
12.12.2017 20:00:00 0,6 -1,5 -0,3 1,4 3,8 6,2 12 6 18 10 ZW 1016,7 51 0 0,0
12.12.2017 19:00:00 0,8 -1,8 -1,5 1,8 3,9 6,2 11 6 21 11 ZW 1015,8 67 0 0,0
12.12.2017 18:00:00 1,7 -2,0 0,9 2,3 3,9 6,2 11 6 21 11 ZW 1015,0 70 0 0,0
12.12.2017 17:00:00 2,2 -2,0 1,3 2,7 3,9 6,2 14 8 29 16 ZW 1014,3 70 0 0,0
12.12.2017 16:00:00 2,7 -1,7 2,2 3,3 3,9 6,2 17 9 35 19 WZW 1013,2 70 0 0,0
12.12.2017 15:00:00 3,2 -1,9 3,0 3,7 3,8 6,2 18 10 35 19 WZW 1012,2 70 0 0,0
12.12.2017 14:00:00 3,1 -0,5 3,4 3,6 3,7 6,2 17 9 36 19 WZW 1011,5 70 0 0,0
12.12.2017 13:00:00 3,0 -1,1 3,0 3,3 3,6 6,2 20 11 34 18 ZW 1010,6 70 0 0,0

tt = temperatuur
td = dauwpunt
tt 5cm = temperatuur 5cm
tt -5cm = temperatuur -5cm
tt -20cm = temperatuur -20cm
tt -100cm = temperatuur -100cm
ff = windsnelheid
fx = windstoten
dd = windrichting
ppp = luchtdruk
vv = zicht
sd = Zonneschijnduur
rr = neerslag

Weerstations in de omgeving